Location: Bethel Cemetery
(33.4585°N, 96.4003°W)
Time: 05:16:20
(UTC+00:00)

ARIANE 6 FM1 Upper Stage - Visible Passes

Search period start: 09 December 2025 00:00
Search period end: 19 December 2025 00:00
Orbit: 522 x 611 km, 62.0° (Epoch: 08 December)

Date Brightness Start Highest point End Pass type
(mag) Time Alt. Az. Time Alt. Az. Time Alt. Az.
09 Dec 6.4 00:37:50 10° W 00:38:54 11° WSW 00:39:59 10° SW visible
14 Dec 5.8 11:17:05 10° SSE 11:19:27 15° ESE 11:21:46 10° ENE visible
15 Dec 5.0 11:16:25 10° S 11:19:43 24° ESE 11:22:58 10° ENE visible
16 Dec 4.0 11:16:12 10° S 11:20:01 38° ESE 11:23:45 10° NE visible
16 Dec 4.1 12:56:26 10° W 12:59:08 17° NW 13:01:49 10° N visible
17 Dec 2.9 11:20:16 63° SE 11:20:20 63° ESE 11:24:19 10° NE visible
17 Dec 4.5 12:58:14 10° WNW 12:59:42 12° NW 13:01:09 10° NNW visible
18 Dec 4.0 11:22:42 28° NNE 11:22:42 28° NNE 11:24:41 10° NNE visible
